レモン彗星

C/2018 U1 ( Lemmon )

English version
Home page
Updated on May 23, 2019

---------------------------------------------------------------------

・ プロフィール

発見日 2018年10月27日
発見光度 20.0等
発見者 R. A. Kowalski (Mount Lemmon Survey)

・ 写真集

・ 軌道要素

Epoch 2021 Nov. 2.0 TT = JDT 2459520.5
T 2021 Nov. 3.18940 TT                                  MPCW
q   4.9931879            (2000.0)            P               Q
z  -0.0002549      Peri.  180.46670     -0.25313602     -0.30189156
 +/-0.0000247      Node    75.48292     -0.88449574     +0.45709024
e   1.0012728      Incl.  108.29849     -0.39190488     -0.83661819
From 206 observations 2018 Oct. 27-2019 May 13, mean residual 0".4.

・ 星図

・ 光度変化

        m1 = 5.0 + 5 logΔ + 10.0 log r

---------------------------------------------------------------------

軌道要素はM.P.E.C. 2019-J142に掲載されたものです。
星図はステラナビゲータ Ver.10 (アストロアーツ) で作成したものです。
光度グラフはComet for Windowsで作成したものです。

---------------------------------------------------------------------

Copyright(C) Seiichi Yoshida (comet@aerith.net). All rights reserved.